Weather in Kudepsta

Russia / Krasnodar Krai     43°29′38″N   39°53′29″E
temp.,
°C
wind,
m/s
gust,
m/s
humid.,
%
clouds,
%
prec.,
mm/h
press.,
hPa
HPBL,
m
20 april, tue
tue2000:00+15e1273100 0.0 101227
03:00+15ene4472100 0.1 100758
06:00+16ene4470100 0.0 100358
09:00+15nnw3579100 0.1 1008255
12:00+17wsw2271100 0.3 1008315
15:00+15wsw228598 0.8 1011529
18:00+12sw2299100 0.9 1014163
21:00+10ne2385100 2.3 1016117
21 april, wed
wed2100:00+9ne2490100 2.9 1017263
03:00+10n2287100 4.0 101769
06:00+10nne1290100 1.1 101862
09:00+11wnw348675 1.3 1019326
12:00+13w447014 0.0 1019743
15:00+13w346766 0.0 1019673
18:00+12wnw2277100 0.0 1020202
21:00+10nne0184100 0.0 102119
22 april, thu
thu2200:00+10n1180100 0.0 102019
03:00+10sse0181100 0.0 102015
06:00+9nnw118549 0.0 102119
09:00+13sw22724 0.0 1021429
12:00+14sw3273100 0.0 1021659
15:00+14w2265100 0.1 1020533
18:00+11nw1278100 0.1 1020117
21:00+9se2289100 0.3 102245
23 april, fri
fri2300:00+9se3493100 0.1 1022152
03:00+9ese239147 0.1 1023136
06:00+9ese128957 0.0 1024115
09:00+12s237838 0.0 1025691
12:00+14ssw33703 0.1 1024804
15:00+14sw22687 0.1 1023660
18:00+13w117699 0.0 1020116
21:00+11ne1182100 0.0 102012
24 april, sat
sat2400:00+12ne1173100 0.0 101919
03:00+12n1166100 0.0 101923
06:00+11ne226492 0.0 102035
09:00+15w114996 0.0 1020368
12:00+16wsw124993 0.0 1021486
15:00+16w2249100 0.0 1020607
18:00+14nw2271100 0.0 102051
21:00+13nne2263100 0.0 102035